Weather History for Vineland (AU8), ON

Change the Weather History Date:

Sunday, September 2, 2012

  Actual Average Record
Temperature  
Mean Temperature 68 °F -  
Max Temperature 77 °F - - ()
Min Temperature 60 °F - - ()
Cooling Degree Days 4    
Growing Degree Days 18 (Base 50)    
Moisture  
Dew Point 60 °F    
Average Humidity 71    
Maximum Humidity 94    
Minimum Humidity 53    
Precipitation  
Precipitation 0.00 in - - ()
Sea Level Pressure  
Sea Level Pressure 30.03 in    
Wind  
Wind Speed 4 mph ()    
Max Wind Speed 8 mph    
Max Gust Speed -    
T = Trace of Precipitation, MM = Missing Value Source: Averaged Metar Reports

Daily Weather History Graph

Daily Weather History Graph

Search for Another Location

Airport:

Trip Planner

Search our weather history database for the weather conditions in past years. The results will help you decide how hot, cold, wet, or windy it might be!

Date:

Astronomy

Sep. 02, 2012 Rise Set
Actual Time 6:43 AM EDT 7:49 PM EDT
Civil Twilight 6:14 AM EDT 8:19 PM EDT
Nautical Twilight 5:39 AM EDT 8:53 PM EDT
Astronomical Twilight 5:02 AM EDT 9:30 PM EDT
Moon 8:30 PM EDT (9/2) 8:55 AM EDT (9/2)
Length of Visible Light 14h 04m
Length of Day
13h 06m
Waning Gibbous, 95% of the Moon is Illuminated
Sep 2
Waning Gibbous
Sep 8
Last Quarter
Sep 15
New
Sep 22
First Quarter
Sep 29
Full

Hourly Weather History & Observations

Time (EDT) Temp. Dew Point Humidity Pressure Visibility Wind Dir Wind Speed Gust Speed Precip Events Conditions
12:00 AM 63.7 °F 54.1 °F 71% 30.03 in - WNW 1.2 mph - N/A   Unknown
1:00 AM 64.6 °F 57.7 °F 78% 30.04 in - WNW 3.5 mph - N/A   Unknown
2:00 AM 67 °F 65 °F 91% 30.05 in - North 3.5 mph - -  
2:00 AM 66.7 °F 64.9 °F 94% 30.05 in - North 3.5 mph - N/A   Unknown
3:00 AM 64.4 °F 61.9 °F 92% 30.04 in - West 3.5 mph - N/A   Unknown
4:00 AM 63.1 °F 61.2 °F 93% 30.04 in - SW 2.3 mph - N/A   Unknown
5:00 AM 60.8 °F 58.6 °F 93% 30.04 in - West 1.2 mph - N/A   Unknown
6:00 AM 67.5 °F 62.1 °F 83% 30.03 in - NE 5.8 mph - N/A   Unknown
7:00 AM 67.3 °F 61.7 °F 82% 30.05 in - NNE 5.8 mph - N/A   Unknown
8:00 AM 68 °F 60 °F 70% 30.05 in - NNE 6.9 mph - -  
8:00 AM 67.8 °F 60.4 °F 77% 30.05 in - NNE 6.9 mph - N/A   Unknown
9:00 AM 70.0 °F 61.7 °F 75% 30.06 in - NE 5.8 mph - N/A   Unknown
10:00 AM 71.8 °F 61.9 °F 71% 30.06 in - NE 6.9 mph - N/A   Unknown
11:00 AM 73.0 °F 61.9 °F 68% 30.06 in - NE 8.1 mph - N/A   Unknown
12:00 PM 74.1 °F 62.2 °F 66% 30.05 in - ENE 6.9 mph - N/A   Unknown
1:00 PM 73.6 °F 59.9 °F 62% 30.04 in - NE 6.9 mph - N/A   Unknown
2:00 PM 74 °F 60 °F 53% 30.03 in - NE 8.1 mph - -  
2:00 PM 74.1 °F 60.3 °F 62% 30.03 in - NE 8.1 mph - N/A   Unknown
3:00 PM 75.7 °F 59.0 °F 56% 30.01 in - NE 8.1 mph - N/A   Unknown
4:00 PM 76.6 °F 60.3 °F 57% 30.00 in - ENE 8.1 mph - N/A   Unknown
5:00 PM 76.3 °F 60.8 °F 59% 29.99 in - East 4.6 mph - N/A   Unknown
6:00 PM 74.8 °F 61.3 °F 63% 29.99 in - East 6.9 mph - N/A   Unknown
7:00 PM 73.4 °F 61.7 °F 67% 29.99 in - East 6.9 mph - N/A   Unknown
8:00 PM 72 °F 59 °F 54% 29.98 in - ESE 4.6 mph - -  
8:00 PM 72.3 °F 58.6 °F 62% 29.98 in - ESE 4.6 mph - N/A   Unknown
9:00 PM 71.1 °F 55.2 °F 57% 30.00 in - ESE 3.5 mph - N/A   Unknown
10:00 PM 67.5 °F 55.6 °F 66% 30.00 in - ESE 1.2 mph - N/A   Unknown
11:00 PM 63.1 °F 55.8 °F 77% 30.00 in - Calm Calm - N/A   Unknown